Location: Arnolds Mill
(42.3415°N, 73.5951°W)
Time: 10:36:26
(UTC+00:00)

BlueWalker 3 - Pass Details

Date: 24 June 2024
Orbit: 480 x 492 km, 53.2° (Epoch: 13 July)

Event Time Altitude Azimuth Distance (km) Brightness Sun altitude
Rises 05:16:12 0° 310° (NW) 2,540 6.0 -24.1°
Reaches altitude 10° 05:18:35 10° 323° (NW) 1,658 5.2 -24.1°
Maximum altitude 05:21:51 28° 24° (NNE) 930 3.9 -24.0°
Drops below altitude 10° 05:25:07 10° 85° (E) 1,654 4.7 -23.9°
Enters shadow 05:26:27 - 93° (E) 2,137 5.2 -23.9°
